Regional Weather Roundup
Issued by NWS

Home | Current Version | Previous Version | Graphics & Text | Print | Product List | Glossary On
Versions: 1 2 3 4 5 6 7 8 9 10 11 12 13 14 15 16 17 18 19 20 21 22 23 24 25 26 27 28 29 30 31 32 33 34 35 36 37 38 39 40 41 42 43 44 45 46 47 48 49 50
000
ASUS43 KIND 291709
RWRIN

WEATHER ROUNDUP FOR INDIANA
NATIONAL WEATHER SERVICE INDIANAPOLIS IN
100 PM EDT TUE JUL 29 2014

NOTE: "FAIR" INDICATES FEW OR NO CLOUDS BELOW 12,000 FEET WITH NO
SIGNIFICANT WEATHER AND/OR OBSTRUCTIONS TO VISIBILITY.

* - STATION DOES NOT REPORT WEATHER SUCH AS PRECIPITATION OR FOG.

+ - STATION NOT QUALITY CONTROLLED BY THE NATIONAL WEATHER SERVICE.
    USE DATA WITH CAUTION...ESPECIALLY DEWPOINT AND RELATIVE
    HUMIDITY OBSERVATIONS.

INZ001>003-010>013-019-020-291800-
NORTHWEST INDIANA

CITY           SKY/WX    TMP DP  RH WIND       PRES   REMARKS
GARY /AIRPORT/ MOSUNNY   77  55  47 W12G25    30.04F
KNOX *+        MOSUNNY   73  56  55 W7        30.03F
LA PORTE +     SUNNY     71  56  59 NW18G24   30.04F
MICHIGAN CITY+ SUNNY     68  55  64 W8        30.05S
MONTICELLO +   MOSUNNY   72  58  62 W5        30.05F
RENSSELAER +   MOSUNNY   73  61  64 W7        30.05F
VALPARAISO     MOSUNNY   74  57  55 N9G26     30.04F

$$

LMZ046-743>745-291800-
SOUTHERN LAKE MICHIGAN

STATION/POSITION TIME  TEMP WIND        PRES
                       AIR  DIR/SP/G
                 (UTC) (F)  (DEG/KT/KT) (MB)
MICHIGAN CITY    1700   68  280/  9/ 11   N/A

$$

INZ004-005-014>016-021>024-291800-
NORTH CENTRAL INDIANA

CITY           SKY/WX    TMP DP  RH WIND       PRES   REMARKS
GOSHEN         PTSUNNY   71  55  56 SW10      30.04F
LOGANSPORT +   MOSUNNY   72  54  53 W6        30.06F
PERU/GRISSOM   MOSUNNY   70  58  65 W6        30.06F
ROCHESTER +    MOSUNNY   72  54  53 W7        30.06S
SOUTH BEND     MOSUNNY   74  56  53 NW14G20   30.03F
WARSAW +       CLOUDY    66  54  63 SW6       30.05S

$$

INZ006>009-017-018-025>027-291800-
NORTHEAST INDIANA

CITY           SKY/WX    TMP DP  RH WIND       PRES   REMARKS
ANGOLA *+      PTSUNNY   66  55  68 W6        30.04S
AUBURN +       MOSUNNY   70  52  52 SW7       30.05F
FORT WAYNE     PTSUNNY   70  54  56 W8        30.06F
HUNTINGTON +   CLOUDY    67  52  58 W7        30.05F

$$

INZ028-029-035-036-043>045-051>053-291800-
WEST CENTRAL INDIANA

CITY           SKY/WX    TMP DP  RH WIND       PRES   REMARKS
GREENCASTLE +  SUNNY     70  55  60 CALM      30.09F
LAFAYETTE      MOSUNNY   73  56  54 W7        30.06F
TERRE HAUTE    SUNNY     74  57  55 VRB5      30.09F

$$

INZ030>032-037>040-046>048-054>057-064-065-291800-
CENTRAL INDIANA

CITY           SKY/WX    TMP DP  RH WIND       PRES   REMARKS
ANDERSON       SUNNY     68  50  52 W12       30.09S
CP ATTERBURY + SUNNY     72  52  49 NE3       30.09S
COLUMBUS       MOSUNNY   68  55  64 N5        30.09S
GREENWOOD *+   SUNNY     73  55  53 W3        30.08F
INDIANAPOLIS   MOSUNNY   71  52  50 W8        30.08F
-EAGLE CREEK   SUNNY     71  51  49 W3        30.07F
KOKOMO *+      MOSUNNY   72  55  56 W7        30.06F
MARION +       PTSUNNY   67  53  58 W3        30.07F
MT COMFORT *+  SUNNY     72  55  56 NE5       30.08S
SHELBYVILLE    SUNNY     72  54  53 W5        30.07F
ZIONSVILLE +   SUNNY     71  51  47 W5        30.08F

$$

INZ033-034-041-042-049-050-058-059-291800-
EAST CENTRAL INDIANA

CITY           SKY/WX    TMP DP  RH WIND       PRES   REMARKS
MUNCIE         SUNNY     69  50  50 VRB3      30.07F

$$

INZ060-061-067>069-081>083-085>088-291800-
SOUTHWEST INDIANA

CITY           SKY/WX    TMP DP  RH WIND       PRES   REMARKS
EVANSVILLE     MOSUNNY   74  54  49 NW8       30.12S
WASHINGTON +   SUNNY     72  59  64 NW6       30.10S

$$

INZ062-063-066-070>080-084-089>092-291800-
SOUTH CENTRAL AND SOUTHEAST INDIANA

CITY           SKY/WX    TMP DP  RH WIND       PRES   REMARKS
BEDFORD +      SUNNY     70  52  52 CALM      30.10
BLOOMINGTON    SUNNY     72  55  55 CALM      30.09F
SEYMOUR +      SUNNY     66  39  37 CALM      30.09

$$




USA.gov is the U.S. government's official web portal to all federal, state and local government web resources and services.